GW1419 Weather Reports


time (UTC)temp
F
wind
direction
speed
knots
gust
knots
rain 1hr
in
rain 24hr
in
rain mn
in
humidity
%
barometer
mb
20260510203037 75 360 7.0 12.2 0.00 0.00 0.00 59 1016.2
20260510201526 75 10 7.0 11.3 0.00 0.00 0.00 58 1016.4
20260510200025 76 5 8.7 13.0 0.00 0.00 0.00 57 1016.5
20260510194522 77 18 8.7 13.9 0.00 0.00 0.00 59 1016.3
20260510193021 76 360 8.7 12.2 0.00 0.00 0.00 62 1016.1
20260510191522 76 355 7.8 11.3 0.00 0.00 0.00 62 1016.1
20260510190019 76 5 8.7 11.3 0.00 0.00 0.00 63 1016.3
20260510184518 76 5 6.1 10.4 0.00 0.00 0.00 66 1016.2
20260510183031 77 5 8.7 11.3 0.00 0.00 0.00 64 1016.1
20260510181515 78 40 3.5 5.2 0.00 0.00 0.00 63 1016.1
20260510180012 78 15 6.1 7.8 0.00 0.00 0.00 63 1016.0
20260510174513 77 49 2.6 8.7 0.00 0.00 0.00 64 1015.8
20260510173008 77 30 6.1 12.2 0.00 0.00 0.00 62 1015.7
20260510171507 77 15 4.3 10.4 0.00 0.00 0.00 62 1015.8
20260510170003 77 98 3.5 9.6 0.00 0.00 0.00 66 1015.9
20260510164607 75 5 4.3 7.8 0.00 0.00 0.00 67 1016.1
20260510163056 74 13 2.6 6.1 0.00 0.00 0.00 68 1016.1
20260510161555 74 11 3.5 7.0 0.00 0.00 0.00 67 1016.2
20260510160100 74 9 1.7 4.3 0.00 0.00 0.00 68 1016.0
20260510154603 73 11 4.3 7.0 0.00 0.00 0.00 67 1015.8
20260510153051 73 30 1.7 3.5 0.00 0.00 0.00 68 1015.8
20260510151547 73 38 0.0 1.7 0.00 0.00 0.00 72 1015.7
20260510150043 72 59 0.0 1.7 0.00 0.00 0.00 74 1015.4
20260510144538 71 78 0.0 1.7 0.00 0.00 0.00 76 1015.3
20260510143040 69 136 0.9 2.6 0.00 0.00 0.00 77 1015.2
20260510141533 68 136 2.6 4.3 0.00 0.00 0.00 80 1015.0
20260510140028 67 140 2.6 4.3 0.00 0.00 0.00 85 1014.9
20260510134524 65 229 0.0 1.7 0.00 0.00 0.00 89 1014.9
20260510133021 63 182 0.0 0.9 0.00 0.00 0.00 90 1014.8
20260510131520 62 190 0.0 1.7 0.00 0.00 0.00 91 1014.9
20260510130027 61 263 0.0 0.9 0.00 0.00 0.00 93 1014.6
20260510124518 60 311 0.0 1.7 0.00 0.00 0.00 92 1014.8
20260510123017 59 148 0.9 1.7 0.00 0.00 0.00 92 1014.6
20260510121517 58 92 0.0 1.7 0.00 0.00 0.00 92 1014.5
20260510120015 58 130 0.0 0.0 0.00 0.00 0.00 92 1014.6
20260510114515 58 57 0.0 0.0 0.00 0.00 0.00 92 1014.6
20260510113020 57 351 0.0 1.7 0.00 0.00 0.00 92 1014.7
20260510111513 57 315 0.0 0.0 0.00 0.00 0.00 92 1014.2
20260510110011 57 210 0.0 2.6 0.00 0.00 0.00 92 1014.0
20260510104508 56 126 0.0 1.7 0.00 0.00 0.00 91 1013.2
20260510103002 56 126 0.0 0.9 0.00 0.00 0.00 90 1012.9
20260510101500 56 126 0.0 1.7 0.00 0.00 0.00 90 1012.7
20260510100109 56 126 0.9 1.7 0.00 0.00 0.00 90 1012.8
20260510094558 56 126 0.0 1.7 0.00 0.00 0.00 90 1012.7
20260510093058 56 126 0.0 0.9 0.00 0.00 0.00 89 1012.6
20260510091602 56 126 0.9 2.6 0.00 0.00 0.00 89 1012.5
20260510090107 56 126 0.0 1.7 0.00 0.00 0.00 89 1012.4
20260510084600 56 126 0.9 1.7 0.00 0.00 0.00 89 1012.1
20260510083055 56 126 0.9 1.7 0.00 0.00 0.00 88 1011.9
20260510081552 56 126 0.0 1.7 0.00 0.00 0.00 88 1011.9
20260510080101 57 126 0.9 1.7 0.00 0.00 0.00 87 1011.9
20260510074548 57 126 0.9 1.7 0.00 0.00 0.00 87 1011.8
20260510073046 58 126 0.9 1.7 0.00 0.00 0.00 86 1011.8
20260510071546 58 126 0.0 1.7 0.00 0.00 0.00 86 1011.9
20260510070145 58 126 0.0 1.7 0.00 0.00 0.00 86 1012.0
20260510064558 59 126 0.0 1.7 0.00 0.00 0.00 85 1011.9
20260510063045 59 126 0.9 1.7 0.00 0.00 0.00 84 1012.1
20260510061545 60 126 0.9 1.7 0.00 0.00 0.00 81 1012.4
20260510060039 61 126 0.0 0.0 0.00 0.00 0.00 81 1012.1
20260510054531 62 126 0.0 0.0 0.00 0.00 0.00 78 1012.2
20260510053028 63 126 0.0 0.0 0.00 0.00 0.00 78 1012.0
20260510051526 63 126 0.0 0.0 0.00 0.00 0.00 76 1011.8
20260510050029 63 126 0.0 0.0 0.00 0.00 0.00 76 1011.6
20260510044519 64 126 0.0 0.0 0.00 0.00 0.00 74 1011.5
20260510043019 64 126 0.0 0.0 0.00 0.00 0.00 75 1011.3
20260510041518 65 126 0.0 1.7 0.00 0.00 0.00 74 1011.3
20260510040018 65 126 0.0 1.7 0.00 0.00 0.00 73 1011.3
20260510034516 64 126 0.9 2.6 0.00 0.00 0.00 73 1011.2
20260510033016 64 126 1.7 3.5 0.00 0.00 0.00 73 1011.2
20260510031515 65 126 1.7 3.5 0.00 0.00 0.00 72 1011.2
20260510030013 65 126 0.9 2.6 0.00 0.00 0.00 71 1011.0
20260510024512 65 126 1.7 3.5 0.00 0.00 0.00 71 1011.0
20260510023011 65 123 1.7 3.5 0.00 0.00 0.00 70 1010.8
20260510021513 66 121 3.5 5.2 0.00 0.00 0.00 68 1010.5
20260510020010 68 89 1.7 3.5 0.00 0.00 0.00 68 1010.5
20260510014512 68 89 1.7 3.5 0.00 0.00 0.00 67 1010.3
20260510013010 69 88 1.7 5.2 0.00 0.00 0.00 67 1010.1
20260510011507 70 156 2.6 4.3 0.00 0.00 0.00 65 1009.9
20260510010007 71 150 2.6 3.5 0.00 0.00 0.00 64 1009.6
20260510004506 73 110 2.6 5.2 0.00 0.00 0.00 62 1009.5
20260510003007 76 101 1.7 5.2 0.00 0.00 0.00 60 1009.4
20260510001507 79 20 1.7 2.6 0.00 0.00 0.00 52 1009.2
20260510000004 80 170 0.9 2.6 0.00 0.00 0.00 44 1009.3
20260509234512 81 140 0.9 3.5 0.00 0.00 0.00 42 1009.2
20260509233008 82 138 2.6 4.3 0.00 0.00 0.00 36 1009.2
20260509231503 83 138 1.7 6.1 0.00 0.00 0.00 38 1009.1
20260509230002 83 167 3.5 7.0 0.00 0.00 0.00 34 1009.1
20260509224501 83 160 1.7 7.0 0.00 0.00 0.00 34 1008.9
20260509223001 83 142 4.3 7.0 0.00 0.00 0.00 31 1008.9
20260509221601 83 134 4.3 8.7 0.00 0.00 0.00 31 1008.8
20260509221502 84 132 4.3 8.7 0.00 0.00 0.00 34 1008.8
20260509214600 85 137 2.6 6.1 0.00 0.00 0.00 29 1009.1
20260509213058 85 138 0.9 6.1 0.00 0.00 0.00 29 1009.2
20260509211602 85 148 1.7 5.2 0.00 0.00 0.00 28 1009.2
20260509210108 86 175 1.7 3.5 0.00 0.00 0.00 30 1009.3
20260509204553 87 200 0.0 3.5 0.00 0.00 0.00 32 1009.3